Weather History for Glendale Luke AFB, AZ

Change the Weather History Date:

Saturday, July 20, 2013

  Actual Average Record
Temperature  
Mean Temperature 88 °F -  
Max Temperature 100 °F 107 °F 115 °F (1961)
Min Temperature 75 °F 75 °F 58 °F (1928)
Cooling Degree Days 22    
Growing Degree Days 38 (Base 50)    
Moisture  
Dew Point 72 °F    
Average Humidity 69    
Maximum Humidity 95    
Minimum Humidity 33    
Precipitation  
Precipitation 0.05 in - - ()
Sea Level Pressure  
Sea Level Pressure 29.77 in    
Wind  
Wind Speed 9 mph (WNW)    
Max Wind Speed 20 mph    
Max Gust Speed 24 mph    
Visibility 10 miles    
Events Rain    
Averages and records for this station are not official NWS values.
T = Trace of Precipitation, MM = Missing Value Source: NWS Daily Summary

Daily Weather History Graph

Daily Weather History Graph

Search for Another Location

Airport:

Trip Planner

Search our weather history database for the weather conditions in past years. The results will help you decide how hot, cold, wet, or windy it might be!

Date:

Astronomy

Jul. 20, 2013 Rise Set
Actual Time 5:33 AM MST 7:37 PM MST
Civil Twilight 5:05 AM MST 8:05 PM MST
Nautical Twilight 4:31 AM MST 8:39 PM MST
Astronomical Twilight 3:55 AM MST 9:15 PM MST
Moon 5:45 PM MST (7/20) 3:17 AM MST (7/20)
Length of Visible Light 14h 59m
Length of Day
14h 03m
Waxing Gibbous, 94% of the Moon is Illuminated
Jul 20
Waxing Gibbous
Jul 22
Full
Jul 29
Last Quarter
Aug 6
New
Aug 14
First Quarter

Hourly Weather History & Observations

Time (MST) Temp. Heat Index Dew Point Humidity Pressure Visibility Wind Dir Wind Speed Gust Speed Precip Events Conditions
12:03 AM 75.2 °F - 73.4 °F 94% 29.84 in 10.0 mi WNW 15.0 mph - N/A Rain Light Rain
12:13 AM 77.0 °F - 75.2 °F 94% 29.84 in 10.0 mi NW 15.0 mph - N/A Rain Light Rain
12:57 AM 78.8 °F - 75.2 °F 89% 29.83 in 10.0 mi North 8.1 mph - N/A Rain Light Rain
12:58 AM 78.8 °F - 75.2 °F 89% 29.79 in 10.0 mi North 8.1 mph - 0.02 in Rain Light Rain
1:18 AM 78.8 °F - 75.2 °F 89% 29.83 in 10.0 mi NW 3.5 mph - N/A Rain Light Rain
1:28 AM 78.8 °F - 77.0 °F 94% 29.84 in 10.0 mi NNE 5.8 mph - N/A Rain Light Rain
1:38 AM 78.8 °F - 77.0 °F 94% 29.83 in 10.0 mi NNE 8.1 mph - N/A Rain Light Rain
1:58 AM 77.7 °F - 76.3 °F 95% 29.80 in 10.0 mi North 8.1 mph - 0.03 in Rain Light Rain
2:58 AM 77.2 °F - 75.7 °F 95% 29.78 in 10.0 mi West 2.3 mph - 0.00 in   Light Drizzle
3:58 AM 77.9 °F - 75.2 °F 91% 29.78 in 10.0 mi ESE 3.5 mph - 0.00 in   Mostly Cloudy
4:58 AM 77.7 °F - 74.8 °F 91% 29.80 in 10.0 mi WNW 3.5 mph - N/A   Mostly Cloudy
5:58 AM 78.6 °F - 75.4 °F 90% 29.81 in 10.0 mi West 4.6 mph - N/A   Overcast
6:58 AM 80.2 °F 84.9 °F 73.9 °F 81% 29.83 in 10.0 mi ESE 3.5 mph - 0.00 in Rain Light Rain
7:58 AM 80.2 °F 86.0 °F 76.5 °F 88% 29.84 in 10.0 mi SW 8.1 mph - 0.00 in   Clear
8:58 AM 82.2 °F 88.5 °F 74.5 °F 77% 29.84 in 10.0 mi Variable 3.5 mph - N/A   Clear
9:58 AM 85.8 °F 92.6 °F 73.0 °F 65% 29.83 in 10.0 mi SW 6.9 mph - N/A   Clear
10:58 AM 87.8 °F 93.4 °F 71.1 °F 57% 29.82 in 10.0 mi West 3.5 mph - N/A   Clear
11:58 AM 90.0 °F 97.4 °F 72.5 °F 56% 29.80 in 10.0 mi Variable 4.6 mph - N/A   Clear
12:58 PM 91.9 °F 99.5 °F 71.8 °F 52% 29.76 in 10.0 mi NW 3.5 mph - N/A   Mostly Cloudy
1:58 PM 93.7 °F 101.7 °F 72.0 °F 49% 29.72 in 10.0 mi SW 4.6 mph - N/A   Clear
2:58 PM 97.0 °F 102.2 °F 68.5 °F 39% 29.69 in 10.0 mi South 4.6 mph - N/A   Clear
3:58 PM 99.0 °F 103.5 °F 66.9 °F 35% 29.66 in 10.0 mi SW 6.9 mph 18.4 mph N/A   Clear
4:58 PM 100.2 °F 104.6 °F 66.6 °F 33% 29.65 in 10.0 mi WSW 11.5 mph - N/A   Clear
5:29 PM 100.4 °F 104.9 °F 66.2 °F 33% 29.70 in 10.0 mi West 13.8 mph - N/A   Clear
5:58 PM 96.1 °F 99.9 °F 66.9 °F 38% 29.66 in 10.0 mi WNW 16.1 mph - N/A   Partly Cloudy
6:58 PM 94.1 °F 98.4 °F 67.5 °F 42% 29.66 in 10.0 mi WNW 10.4 mph - N/A   Clear
7:58 PM 92.8 °F 97.6 °F 68.7 °F 45% 29.70 in 10.0 mi NW 4.6 mph - N/A   Clear
8:58 PM 91.2 °F 96.0 °F 69.3 °F 48% 29.73 in 10.0 mi ESE 11.5 mph - N/A   Scattered Clouds
9:58 PM 83.1 °F 87.1 °F 69.6 °F 64% 29.77 in 10.0 mi SSE 19.6 mph 24.2 mph N/A   Mostly Cloudy
10:58 PM 81.5 °F 86.3 °F 72.3 °F 74% 29.77 in 10.0 mi ENE 8.1 mph - N/A   Partly Cloudy
11:58 PM 82.4 °F 87.2 °F 71.6 °F 70% 29.78 in 10.0 mi ENE 8.1 mph - N/A   Clear